Tracking 20719 objects as of 26-May-2020
HD Live streaming from Space Station
objects crossing your sky now

GRIFEX

Track GRIFEX now!
10-day predictions
GRIFEX is classified as:


NORAD ID: 40379
Int'l Code: 2015-003D
Perigee: 431.7 km
Apogee: 616.2 km
Inclination: 99.1 °
Period: 95.0 minutes
Semi major axis: 6894 km
RCS: Unknown
Launch date: January 31, 2015
Source: United States (US)
Launch site: AIR FORCE WESTERN TEST RANGE (AFWTR)

Uplink (MHz):
Downlink (MHz): 437.480
Beacon (MHz):
Mode: 9k6/19k2bps GMSK
Call sign: KD8SPS
Status: Active

aabbcc
Your satellite tracking list
Your tracking list is empty




NASA's NSSDC Master Catalog

Two Line Element Set (TLE):
1 40379U 15003D   20146.58369377 +.00001428 +00000-0 +63139-4 0  9994
2 40379 099.1038 194.2540 0133845 055.2481 306.1263 15.16370997293383
Source of the keplerian elements: Caltech